Home > Time Zones > World Clock > Weather > Yemen > Aden > Past weeks

Flag for Yemen Weather past 2 weeks in Aden, Yemen

Now
90 °F

Broken clouds.


Feels Like: 93 °F
Forecast: 82 / 95 °F
Wind: No wind

Location: Aden

Current Time: Aug 30, 2014 at 10:17:20 AM

Latest Report: Aug 30, 2014 at 9:00 AM


Visibility: 5 mi

Pressure: 29.74 "Hg

Humidity: 49%

Dew point: 68 °F

Location of AdenLocation

Historic Weather in Aden — Graph

°F

Aden temperature yesterday

Maximum temperature yesterday: 99 °F (at 3:00 PM)
Minimum temperature yesterday: 88 °F (at 1:00 AM)
Average temperature yesterday: 91 °F

Past Weeks' High & Low Weather Summary

 TemperatureHumidityPressure
High100 °F (Aug 23, 4:00 PM)94% (Aug 19, 5:00 AM)29.80 "Hg (Aug 19, 5:00 AM)
Low84 °F (Aug 15, 8:00 PM)22% (Aug 17, 6:00 PM)29.50 "Hg (Aug 29, 4:00 PM)
Average91 °F51%29.64 "Hg
* Reported Aug 15 9:00 AM — Aug 30 9:00 AM, Aden, Weather by CustomWeather, © 2014

Note: Actual official high and low records may vary slightly from our data, if they occured in-between our weather recording intervals... More about our weather records

Advertising

Aden weather history for previous 24 hours

 ConditionsComfort  
Time TempWeatherWind HumidityBarometerVisibility
9:00 AM
Aug 30
90 °FBroken clouds.No wind49%29.74 "Hg5 mi
8:00 AM88 °FPartly sunny.7 mph52%29.71 "Hg4 mi
7:00 AM86 °FBroken clouds.7 mph52%29.68 "Hg4 mi
6:00 AM90 °FThundershowers. Partly sunny.7 mph59%29.65 "Hg4 mi
5:00 AM90 °FThundershowers. Passing clouds.5 mph59%29.65 "Hg4 mi
4:00 AM90 °FThundershowers. Passing clouds.3 mph52%29.65 "Hg4 mi
3:00 AM90 °FClear.5 mph59%29.62 "Hg4 mi
2:00 AM90 °FClear.6 mph59%29.62 "Hg4 mi
1:00 AM90 °FClear.12 mph59%29.59 "Hg4 mi
12:00 AM91 °FClear.5 mph52%29.62 "Hg4 mi
10:00 PM
Aug 29
90 °FClear.3 mph59%29.62 "Hg4 mi
9:30 PM90 °FDuststorm.13 mph59%29.59 "Hg3 mi
8:00 PM90 °FDuststorm.9 mph33%29.56 "Hg3 mi
7:00 PM90 °FPassing clouds.9 mph31%29.56 "Hg1 mi
6:00 PM93 °FPartly sunny.14 mph41%29.59 "Hg2 mi
5:00 PM95 °FPartly sunny.14 mph39%29.53 "Hg3 mi
4:00 PM97 °FScattered clouds.15 mph30%29.50 "Hg4 mi
3:00 PM99 °FClear.13 mph25%29.56 "Hg4 mi
2:00 PM95 °FPassing clouds.14 mph56%29.59 "Hg4 mi
1:00 PM93 °FPassing clouds.13 mph49%29.59 "Hg5 mi
11:00 AM93 °FPassing clouds.8 mph49%29.65 "HgN/A
10:00 AM93 °FPassing clouds.9 mph49%29.68 "Hg5 mi
Weather by CustomWeather, © 2014

See weather overviewHow to use our weather pages